User: anonymous   Login
Location: Unspecified
(0.0000°N, 0.0000°E)
Time: 09:34:20
(UTC+01:00)
Language:

Orbus 21S - Orbit

View from above orbital plane
View from above orbital plane
View from above satellite
View from above satellite

Ground track
Ground track

The orbit data is extracted from the following two-line orbital elements,

1 20669U 90056C   15030.55914979  .00001479  00000-0  68270-3 0  4599
2 20669 024.1105 088.7150 7133195 120.2869 003.8117 02.44959322205955
Epoch (UTC): 30 January 2015 13:25:10
Eccentricity: 0.7133195
inclination: 24.1105°
perigee height: 286 km
apogee height: 33448 km
right ascension of ascending node: 88.7150°
argument of perigee: 120.2869°
revolutions per day: 2.44959322
mean anomaly at epoch: 3.8117°
orbit number at epoch: 20595

The dashed part of the orbit path shows where the satellite is in the earth's shadow,  

DLR